This is the latest recevied weather packets stored in our database for station/object OE-11144. If no packets are shown the sender has not sent any weather packets the latest 10 day(s).
| Time | Temp. | Humidity | Pressure | Rain* | Wind** | Luminosity | Snow |
|---|---|---|---|---|---|---|---|
| 1787901100 | 17.22° C | 86% | 1014.1 hPa | 0 mm | - | - | - |
| 1787900727 | 17.22° C | 90% | 1014.2 hPa | 0 mm | - | - | - |
| 1787900128 | 16.11° C | 90% | 1014.4 hPa | 0 mm | - | - | - |
| 1787899301 | 15.56° C | 94% | 1014.5 hPa | 0 mm | - | - | - |
| 1787898927 | 16.11° C | 93% | 1014.7 hPa | 0 mm | - | - | - |
| 1787898328 | 15.56° C | 93% | 1014.9 hPa | 0 mm | - | - | - |
| 1787897500 | 15.56° C | 93% | 1015.2 hPa | 0 mm | - | - | - |
| 1787897127 | 15.56° C | 94% | 1015.3 hPa | 0 mm | - | - | - |
| 1787896527 | 15° C | 95% | 1015.6 hPa | 0 mm | - | - | - |
| 1787895700 | 14.44° C | 96% | 1015.5 hPa | 0 mm | - | - | - |
| 1787895328 | 14.44° C | 96% | 1015.6 hPa | 0 mm | - | - | - |
| 1787894728 | 13.89° C | 96% | 1015.9 hPa | 0 mm | - | - | - |
| 1787893901 | 13.89° C | 96% | 1015.8 hPa | 0 mm | - | - | - |
| 1787893528 | 13.89° C | 97% | 1015.7 hPa | 0 mm | - | - | - |
| 1787892928 | 13.33° C | 97% | 1016.2 hPa | 0 mm | - | - | - |
| 1787892100 | 13.33° C | 97% | 1015.7 hPa | 0 mm | - | - | - |
| 1787891727 | 13.33° C | 96% | 1015.6 hPa | 0 mm | - | - | - |
| 1787891128 | 13.89° C | 97% | 1015.6 hPa | 0 mm | - | - | - |
| 1787890300 | 13.89° C | 97% | 1015.9 hPa | 0 mm | - | - | - |
| 1787889927 | 13.89° C | 97% | 1015.8 hPa | 0 mm | - | - | - |
| 1787889328 | 13.33° C | 98% | 1015.9 hPa | 0 mm | - | - | - |
| 1787888727 | 13.33° C | 97% | 1016 hPa | 0 mm | - | - | - |
| 1787888127 | 13.89° C | 97% | 1015.9 hPa | 0 mm | - | - | - |
| 1787887527 | 13.89° C | 97% | 1015.9 hPa | 0 mm | - | - | - |
| 1787886697 | 13.33° C | 96% | 1015.9 hPa | 0 mm | - | - | - |
* Rain latest hour (hover to see other rain measurements)
** Current wind speed in m/s (hover to see current wind gust speed)